Location: Fours
(44.3167°N, 6.7000°E)
Time: 21:16:03
(UTC+00:00)

Cosmos 2227 - Pass Details

Date: 31 May 2022
Orbit: 832 x 863 km, 71.0° (Epoch: 03 July)

Event Time Altitude Azimuth Distance (km) Brightness Sun altitude
Rises 21:35:24 0° 322° (NW) 3,447 9.0 -18.6°
Reaches altitude 10° 21:38:23 10° 308° (NW) 2,507 7.6 -18.8°
Maximum altitude 21:42:39 22° 260° (W) 1,801 6.1 -19.2°
Enters shadow 21:46:32 12° 214° (SW) 2,389 6.3 -19.5°
